TRANSIT 18 DEB, 35416

Orbit data source: Space-Track

TRANSIT 18 DEB, 35416 is space debris in LEO originally from a launch on Sat, 02 Mar 1968 UTC launched from the Air Force Western Test Range (AFWTR). Debris objects in space refer to the collection of defunct objects orbiting the Earth. Examples of debris include non-operational satellites, rocket bodies, and fragments generated from explosions, collisions, or faulty payload assembly.

Loading next visibility...
Identifier
35416, 1968-012F
Orbit
LEO
Country
Flag of USUS
Related business
Manufacturer
Unknown
Mission
Spacecraft
Bus & Motor
Unknown
Mass
Unknown
Launch date (UTC)
1968-03-02 (58 years ago)
Launch vehicle
Unknown
Launch site
Air Force Western Test Range (AFWTR)
Object type
Payload
Rocket body
Debris
Shape & HBR
Unknown
Radar Cross Section
Medium (>0.1 m² and <1 m²)

Expand to show TLE details & history
Last TLE update: 18 hours ago

TLE from 18 hours ago
0 TRANSIT 18 DEB
1 35416U 68012F   25260.98259112  .00000842  00000-0  11296-2 0  9993
2 35416  90.0165 272.8290 0064738 328.7618  91.7414 13.58475422817570
Epoch: 2025-09-17T23:34Z
TLE epoch observation values (Epoch: 2025-09-17T23:34:55.872Z)
Latitude
61.33287°
Longitude
-78.08455°
Altitude
1,053.579 km
Speed
7.33 km/s
True Right ascension
18h 11m 11s
True Declination
61° 11' 37"
Sunlit
Object was in daylight at epoch
Visualization orbit readout
Latitude
Unknown
Longitude
Unknown
Altitude
Unknown
Speed
Unknown
Apparent Right ascension
Unknown
Apparent Declination
Unknown
Sunlit
N/A
Visualization observer readout
Local Sidereal Time
10:27:55
Azimuth
Unknown
Elevation
Unknown
Doppler factor
Unknown
Orbital elements
Apogee altitude
1,086.288 km
Perigee altitude
990.263 km
Semi-major axis
7,416.412 km
Eccentricity
0.00647
Inclination
90.0165°
RAAN
272.829°
Arg. of periapsis
328.7618°
True anomaly
92.4827°
Mean anomaly
91.7414°
Eccentric anomaly
92.11207°
Mean motion
3.39823 °/min
Orbital period
105.94 mins
BSTAR
0.0011296
Loading maneuver chart data...
Computing Atmospheric mass density...
Loading historical data...
Loading historical data...
Loading historical data...
Loading historical data...
Loading historical data...
Loading historical data...
Loading historical data...

Documentation

Showing up to 5 results
|